Regional Weather Roundup
Issued by NWS

Home | Current Version | Previous Version | Graphics & Text | Print | Product List | Glossary On
Versions: 1 2 3 4 5 6 7 8 9 10 11 12 13 14 15 16 17 18 19 20 21 22 23 24 25 26 27 28
000
ASUS45 KTFX 142310
RWRMT
MONTANA REGIONAL WEATHER ROUNDUP
NATIONAL WEATHER SERVICE GREAT FALLS MT
400 PM MST THU DEC 14 2017

NOTE: "FAIR" INDICATES FEW OR NO CLOUDS BELOW 12000 FEET WITH NO
SIGNIFICANT WEATHER AND/OR OBSTRUCTIONS TO VISIBILITY.

MTZ001>007-043-150000-
WEST OF THE DIVIDE

CITY           SKY/WX    TMP DP  RH WIND       PRES   REMARKS
KALISPELL      CLOUDY    29  25  85 CALM      30.39F
MISSOULA       FAIR      33  26  75 NW8       30.37S WCI  26
BUTTE          FAIR      26  21  81 S3        30.27F
MULLAN PASS    FAIR      28  24  85 VRB5      30.28S
ANACONDA         N/A     25  21  86 N3        30.30F
DEER LODGE       N/A     27  23  86 CALM      30.33F
EUREKA           N/A     25  21  86 MISG      30.44S
HAMILTON         N/A     28  27  93 SE3       30.35S VSB 1/2
LIBBY            N/A     30  25  80 CALM      30.41F
PLAINS           N/A     33  24  70 CALM      30.38F
RONAN            N/A     31  26  81 SE3       30.39F
$$

MTZ008-052>055-150000-
SOUTHWEST MONTANA

CITY           SKY/WX    TMP DP  RH WIND       PRES   REMARKS
BOZEMAN        FOG       21  18  88 CALM      30.30F VSB<1/4
DILLON         FAIR      30  21  69 CALM      30.29F
W YELLOWSTONE  FAIR      25  18  74 S6        30.32S WCI  18
ENNIS          CLOUDY    28  23  80 CALM      30.32F
THREE FORKS      N/A     15  12  88 CALM      30.27F VSB 0
TWIN BRIDGES     N/A     28  19  69 CALM      30.25F
$$

MTZ009-010-012-014-046-048-049-054-150000-
EAST SLOPES AND CENTRAL MONTANA

CITY           SKY/WX    TMP DP  RH WIND       PRES   REMARKS
CUT BANK       FAIR      42  18  37 W21       30.07F
GREAT FALLS    FAIR      38  20  48 SW18      30.13F WCI  28
HELENA         FAIR      24  21  88 NW6       30.29F WCI  17
CHOTEAU          N/A     46  16  29 SW5       30.11F
$$

MTZ011-013-016-021-045-047-050-051-150000-
NORTH CENTRAL MONTANA

CITY           SKY/WX    TMP DP  RH WIND       PRES   REMARKS
HAVRE          FAIR      35  24  64 SW5       30.12F
LEWISTOWN      FAIR      40  23  50 CALM      30.13F
N BAR RANCH    FAIR      36  12  38 S5        30.15F
CHINOOK          N/A     37  25  60 CALM      30.13F
$$

MTZ017>020-022>027-061-062-150000-
NORTHEAST MONTANA

CITY           SKY/WX    TMP DP  RH WIND       PRES   REMARKS
GLASGOW        FAIR      32  22  66 NW8       30.14F WCI  25
JORDAN           N/A     35  21  56 W3        30.16F
SIDNEY         FAIR      34  24  67 W9        30.13F WCI  27
WOLF POINT     FAIR      37  23  56 W10       30.15F WCI  30
MALTA          CLEAR     34  23  64 S9        30.16F WCI  26
PLENTYWOOD       N/A     32  23  69 CALM      30.09S
POPLAR           N/A     36  21  55 W8        30.14F WCI  29
SCOBEY           N/A     31  18  58 W7        30.09F WCI  24
$$

MTZ028>42-056>058-150000-
SOUTHCENTRAL AND SOUTHEAST MONTANA

CITY           SKY/WX    TMP DP  RH WIND       PRES   REMARKS
BAKER          CLOUDY    33  26  75 W13       30.16F WCI  24
BILLINGS       FAIR      43  20  39 W10       30.18F
LIVINGSTON     FAIR      36  24  62 W16       30.20F WCI  26
MILES CITY     FAIR      35  23  61 W7        30.17F WCI  29
BIG TIMBER     CLEAR     41  18  38 W31G38    30.18F
FORSYTH          N/A     39  23  52 CALM      30.18F
LAUREL           N/A     45  18  33 VRB6G13   30.19S
ROUNDUP          N/A     44  16  32 SW6       30.06S
$$

REGIONAL REPORTS...DAKOTAS

CITY           SKY/WX    TMP DP  RH WIND       PRES   REMARKS
WILLISTON      FAIR      33  24  69 W8        30.11F WCI  26
MINOT          CLOUDY    35  25  66 W18G25    30.05S WCI  24
DICKINSON      CLOUDY    32  24  72 W18G25    30.09F WCI  20
BEACH          CLOUDY    32  27  80 W12       30.16F WCI  23
CROSBY         CLOUDY    32  25  74 NW16G22   30.09R WCI  21
TIOGA          CLOUDY    32  28  86 W20       30.07F WCI  20
WATFORD CITY   MOCLDY    34  23  64 W12G17    30.10F WCI  25
BISMARCK       CLOUDY    35  25  66 W9        30.10F WCI  28
GRAND FORKS    CLOUDY    20  16  84 NE3       30.05F
FARGO          LGT SNOW  24  20  84 NW3       30.06F FOG
BUFFALO SD       N/A     33  25  72 W18       30.10F WCI  22
RAPID CITY     CLOUDY    33  21  61 NW20      30.19S WCI  21
$$

REGIONAL REPORTS...WYOMING/IDAHO/WASHINGTON

CITY           SKY/WX    TMP DP  RH WIND       PRES   REMARKS
GILLETTE       FAIR      32  21  64 NW8       30.18F WCI  25
SHERIDAN       FAIR      38  22  52 NW9       30.19F WCI  31
BUFFALO WY     FAIR      37  18  46 NW8       30.19F WCI  31
CODY           FAIR      38  16  40 S5        30.21F
YELLOWSTONE LA   N/A     21  16  81 CALM      30.33S
IDAHO FALLS    CLOUDY    23  21  92 NW6       30.44S FOG     WCI  16
SALMON         FAIR      31  24  75 CALM      30.43F
BOISE          CLOUDY    27  22  81 S5        30.51F
SPOKANE        LGT SNOW  30  29  96 NE6       30.43F FOG     WCI  24
$$

REGIONAL REPORTS...ALBERTA

CITY           SKY/WX    TMP DP  RH WIND       PRES   REMARKS
EDMONTON       MOCLDY    36  23  60 SW9       29.92F WCI  29
CALGARY        MOCLDY    39  19  45 S7        30.01F
LETHBRIDGE     MOCLDY    45  21  39 W12G18    30.04S
MEDICINE HAT   MOCLDY    37  27  65 S3        30.06F
$$

REGIONAL REPORTS...SASKATCHEWAN

CITY           SKY/WX    TMP DP  RH WIND       PRES   REMARKS
SWIFT CURRENT  CLEAR     27  21  80 W7        30.08F WCI  19
REGINA         MOCLDY    30  25  80 W12G17    30.07S WCI  21
SASKATOON      MOCLDY    28  25  86 SW7       30.08F WCI  21
$$




USA.gov is the U.S. government's official web portal to all federal, state and local government web resources and services.